LATEST WEATHER OBSERVATIONS RECORDED AT FUA'AMOTU AIRPORT
DATE TIME CLOUD WIND KT TEMP
(C)
DewPoint
(C)
RH(%) WEATHER MSL PRESS.
(MB)
18.02.2020 02:00PM FINE  SE 11 28.5 21.7 66.71175 NIL 1004
18.02.2020 01:00PM FINE  SE 14 28 21.8 69.09932 NIL 1004.4
18.02.2020 12:00PM FINE  SE 13 28 21.8 69.09932 NIL 1004.8
18.02.2020 11:00AM FINE  SE 13 27.5 21.4 69.42566 NIL 1005.2
18.02.2020 10:00AM FINE  SE 12 26.8 21.4 72.33265 NIL 1005.1
18.02.2020 09:00AM FINE  SE 12 26.2 21.6 75.85665 NIL 1004.9
18.02.2020 08:00AM PARTLY CLOUDY SE 10 24.9 21.5 81.43769 NIL 1004.8
18.02.2020 07:00AM CLOUDY SE 7 22.8 21.6 92.95757 RECENT SHOWERS 1004.4
18.02.2020 06:00AM PARTLY CLOUDY SE 7 24.1 20.9 82.34145 NIL 1004.3
18.02.2020 05:00AM FINE  SE 10 24.6 21.1 80.90125 NIL 1004.1
18.02.2020 04:00AM PARTLY CLOUDY SE 12 24.8 21 79.45172 NIL 1003.9
18.02.2020 03:00AM PARTLY CLOUDY SE 11 25.2 21.3 79.02226 NIL 1003.9
18.02.2020 02:00AM FINE  SE 13 24.7 21.4 81.91222 NIL 1004.7
18.02.2020 01:00AM FINE  SE 12 25 22 83.46381 NIL 1005.2
18.02.2020 12:00AM FINE  SE 10 25.4 21.5 79.05079 NIL 1005.8
17.02.2020 11:00PM CLOUDY SE 12 25.8 21.3 76.25839 NIL 1006.1
17.02.2020 10:00PM CLOUDY SE 11 25.6 21.9 80.05065 NIL 1005.8
17.02.2020 09:00PM CLOUDY SE 13 25.9 21.7 77.68666 NIL 1005.2
17.02.2020 08:00PM PARTLY CLOUDY SE 9 25.2 22.2 83.48693 NIL 1005.1
17.02.2020 07:00PM CLOUDY SE 14 25.5 22.3 82.51268 NIL 1004.6
17.02.2020 06:00PM PARTLY CLOUDY SE 13 27 20.5 67.6422 NIL 1004.1
17.02.2020 05:00PM CLOUDY SE 13 26.8 22.7 78.2947 NIL 1004.2